Location: Decatur Area Astronomy Club
(40.0275°N, 88.7810°W)
Time: 01:51:56
(UTC-05:00)

Amateur Radio Satellites - All Passes

Search period start: 28 September 2016 01:21
Search period end: 29 September 2016 01:21
Location: Decatur Area Astronomy Club, 40.0275°N, 88.7810°W

Satellite Date Start Highest point End Downlink Frequencies (MHz)
Time Altitude Azimuth
CUBEBUG 1 28 Sep 01:23:57 01:24:14 10° 270° (W) 01:24:32 437.445
ISS 28 Sep 01:24:33 01:26:44 16° 18° (NNE) 01:28:54 145.825
Cosmos 2491 28 Sep 01:25:11 01:33:13 37° 72° (ENE) 01:41:09 435.465 / 435.565
QB50P2 28 Sep 01:27:43 01:31:07 24° 292° (WNW) 01:34:31 145.880/145.840
POLYITAN 1 28 Sep 01:29:55 01:33:19 24° 292° (WNW) 01:36:43 437.675
JAS-2 28 Sep 01:34:15 01:41:57 58° 290° (WNW) 01:49:16 435.910
Gurwin Techsat 1B 28 Sep 01:35:00 01:36:41 11° 89° (E) 01:38:21 435.225
BEESAT 3 28 Sep 01:43:16 01:47:02 47° 306° (NW) 01:50:51 437.485
TISAT 1 28 Sep 01:44:53 01:49:02 61° 259° (WSW) 01:53:11 437.305
RS-15 28 Sep 01:56:20 02:05:24 23° 13° (NNE) 02:14:30 29.354- 29.394
ITUPSAT 1 28 Sep 02:03:22 02:07:44 38° 70° (ENE) 02:12:09 437.325
DUCHIFAT 1 28 Sep 02:09:48 02:10:59 11° 297° (WNW) 02:12:10 145.980
BUGSAT 1 28 Sep 02:10:17 02:13:27 23° 292° (WNW) 02:16:37 437.445
Oscar 19 28 Sep 02:13:44 02:18:51 60° 101° (E) 02:23:54 437.125/150
SWISSCUBE 28 Sep 02:16:06 02:20:45 58° 73° (ENE) 02:25:27 437.505
YUBILEINY 28 Sep 02:24:14 02:31:57 36° 85° (E) 02:39:38 435.215
BEESAT 28 Sep 02:29:00 02:33:44 71° 74° (ENE) 02:38:30 436.000
BEESAT 2 28 Sep 02:39:27 02:42:48 26° 311° (NW) 02:46:12 435.950
KKS-1 28 Sep 02:46:24 02:47:44 11° 62° (ENE) 02:49:05 437.445
ISS 28 Sep 03:00:23 03:03:41 73° 36° (NE) 03:06:58 145.825
AO-7 28 Sep 03:07:11 03:12:11 17° 91° (E) 03:17:09 29.400- 29.500
ITAMSAT 1 28 Sep 03:07:33 03:11:48 25° 95° (E) 03:16:01 435.822/435.867
Gurwin Techsat 1B 28 Sep 03:11:54 03:17:14 82° 284° (WNW) 03:22:33 435.225
Cosmos 2504 28 Sep 03:16:13 03:22:01 26° 84° (E) 03:27:39 435.465 / 435.565
STARS 28 Sep 03:19:28 03:21:08 12° 62° (ENE) 03:22:49 437.465
Cosmos 2491 28 Sep 03:21:51 03:30:12 48° 272° (W) 03:38:29 435.465 / 435.565
JAS-2 28 Sep 03:22:30 03:25:16 12° 309° (NW) 03:28:01 435.910
AIST 2 28 Sep 03:24:16 03:27:55 32° 114° (ESE) 03:31:37 435.215
ITUPSAT 1 28 Sep 03:42:01 03:45:40 22° 266° (W) 03:49:21 437.325
Oscar 19 28 Sep 03:54:25 03:57:38 17° 298° (WNW) 04:00:51 437.125/150
MOZHAYETS 4 28 Sep 03:54:40 03:59:14 89° 256° (WSW) 04:03:52
SWISSCUBE 28 Sep 03:56:27 03:58:55 14° 269° (W) 04:01:23 437.505
RS-15 28 Sep 04:10:12 04:22:07 49° 45° (NE) 04:33:47 29.354- 29.394
BEESAT 28 Sep 04:10:33 04:12:00 11° 270° (W) 04:13:26 436.000
KKS-1 28 Sep 04:19:14 04:23:41 73° 258° (WSW) 04:28:09 437.445
YUBILEINY 28 Sep 04:20:02 04:28:26 49° 284° (WNW) 04:36:52 435.215
AIST 1 28 Sep 04:22:43 04:24:40 13° 85° (E) 04:26:38
CUSAT 1 28 Sep 04:32:43 04:36:08 13° 56° (NE) 04:39:21 437.405
AO-85 28 Sep 04:35:20 04:36:07 10° 37° (NE) 04:36:54 145.980
ISS 28 Sep 04:38:32 04:39:45 12° 231° (SW) 04:40:58 145.825
PCSat 28 Sep 04:43:29 04:48:53 82° 117° (ESE) 04:54:20 145.827
ITAMSAT 1 28 Sep 04:46:30 04:51:21 39° 291° (WNW) 04:56:10 435.822/435.867
STARS 28 Sep 04:52:35 04:56:56 65° 258° (WSW) 05:01:18 437.465
Gurwin Techsat 1B 28 Sep 04:55:00 04:56:18 11° 302° (WNW) 04:57:37 435.225
AO-7 28 Sep 04:57:35 05:05:56 89° 108° (ESE) 05:14:15 29.400- 29.500
AIST 2 28 Sep 05:03:02 05:06:25 24° 312° (NW) 05:09:50 435.215
Cosmos 2504 28 Sep 05:07:41 05:14:54 53° 282° (WNW) 05:21:55 435.465 / 435.565
CUBESAT XI-V 28 Sep 05:14:39 05:19:21 83° 77° (ENE) 05:24:06 437.345
HORYU 2 28 Sep 05:31:22 05:35:19 30° 97° (E) 05:39:15 437.375
BRITE-PL 28 Sep 05:41:42 05:45:27 23° 92° (E) 05:48:59 437.365/2234.400
AIST 1 28 Sep 05:57:30 06:01:46 50° 281° (W) 06:06:03
DANDE 28 Sep 06:01:50 06:09:03 31° 67° (ENE) 06:15:51 436.750
CUSAT 1 28 Sep 06:12:07 06:19:52 69° 77° (ENE) 06:26:16 437.405
AO-85 28 Sep 06:13:12 06:17:21 80° 58° (ENE) 06:21:14 145.980
LilacSat-2 28 Sep 06:15:56 06:18:23 16° 93° (E) 06:20:51 437.200
O/OREOS (USA 219) 28 Sep 06:17:29 06:19:41 13° 98° (E) 06:21:53 437.305
RS-15 28 Sep 06:23:02 06:34:56 57° 248° (WSW) 06:46:31 29.354- 29.394
STRAND 1 28 Sep 06:23:09 06:27:05 23° 65° (ENE) 06:31:01 437.568
PCSat 28 Sep 06:29:29 06:32:58 17° 316° (NW) 06:36:28 145.827
NOAA 15 28 Sep 06:30:17 06:35:04 33° 97° (E) 06:39:48 137.62
Cubesat XI-IV 28 Sep 06:47:04 06:52:05 39° 98° (E) 06:57:04 437.490
CUTE-I 28 Sep 06:47:08 06:52:09 40° 98° (E) 06:57:10 437.470
AO-7 28 Sep 06:51:54 06:57:39 21° 308° (NW) 07:03:26 29.400- 29.500
GOMX 1 28 Sep 07:07:23 07:11:48 78° 101° (E) 07:15:59 467.674
HORYU 2 28 Sep 07:08:08 07:11:43 24° 293° (WNW) 07:15:18 437.375
BRITE-PL 28 Sep 07:19:44 07:24:02 33° 291° (WNW) 07:28:02 437.365/2234.400
DOVE 4 28 Sep 07:27:28 07:31:34 50° 100° (E) 07:35:34 437.250
NOAA 18 28 Sep 07:30:05 07:35:35 77° 104° (ESE) 07:41:03 137.9125
HO-68 28 Sep 07:40:31 07:45:44 21° 92° (E) 07:50:56 435.675
DANDE 28 Sep 07:44:04 07:52:20 63° 267° (W) 07:59:56 436.750
LilacSat-2 28 Sep 07:49:19 07:52:46 32° 288° (WNW) 07:56:13 437.200
O/OREOS (USA 219) 28 Sep 07:54:04 07:58:33 56° 295° (WNW) 08:03:05 437.305
CUSAT 1 28 Sep 07:55:29 08:00:54 22° 279° (W) 08:05:43 437.405
STRAND 1 28 Sep 08:01:10 08:05:58 42° 261° (W) 08:10:49 437.568
PRISM 28 Sep 08:09:13 08:12:27 22° 67° (ENE) 08:15:43 437.425
NOAA 15 28 Sep 08:10:10 08:14:44 30° 293° (WNW) 08:19:15 137.62
Cosmos 2499 28 Sep 08:18:08 08:24:22 33° 87° (E) 08:30:30 435.465 / 435.565
COMPASS 1 28 Sep 08:21:14 08:23:59 17° 92° (E) 08:26:42 437.405
Cubesat XI-IV 28 Sep 08:27:32 08:31:56 27° 294° (WNW) 08:36:20 437.490
CUTE-I 28 Sep 08:27:37 08:31:58 26° 295° (WNW) 08:36:21 437.470
CINEMA 3 28 Sep 08:37:01 08:41:12 78° 103° (ESE) 08:45:29 145.822/145.860
GONETS M04 28 Sep 08:41:41 08:50:20 63° 92° (E) 08:59:03
CUTE 1.7 + AOD 2 28 Sep 08:48:20 08:52:40 76° 103° (ESE) 08:56:56 437.475
SEEDS 28 Sep 08:49:15 08:53:26 52° 99° (E) 08:57:35 437.485
CANX-2 28 Sep 08:49:39 08:53:59 89° 282° (WNW) 08:58:17 2200.000
Oscar 11 28 Sep 08:51:53 08:53:04 11° 90° (E) 08:54:16 145.826/435.025
ZACube-1 28 Sep 08:53:46 08:55:38 12° 91° (E) 08:57:32 437.345
DOVE 4 28 Sep 09:06:52 09:08:49 13° 296° (WNW) 09:10:44 437.250
AAUSAT CUBESAT 2 28 Sep 09:10:55 09:15:00 48° 99° (E) 09:19:03 437.432
NOAA 18 28 Sep 09:12:35 09:15:33 15° 301° (WNW) 09:18:33 137.9125
ANTELSAT 28 Sep 09:17:36 09:20:10 16° 65° (ENE) 09:22:43 437.575/2403.000
BEESAT 2 28 Sep 09:20:22 09:22:59 17° 45° (NE) 09:25:36 435.950
HO-68 28 Sep 09:26:54 09:33:59 69° 289° (WNW) 09:41:04 435.675
DANDE 28 Sep 09:31:04 09:33:24 11° 285° (WNW) 09:35:42 436.750
TIGRISAT 28 Sep 09:37:02 09:40:27 24° 68° (ENE) 09:43:52 435.000
CUBEBUG 2 28 Sep 09:42:07 09:46:24 75° 283° (WNW) 09:50:48 437.445
PRISM 28 Sep 09:43:56 09:47:35 29° 263° (W) 09:51:16 437.425
FUNcube-1 28 Sep 09:45:44 09:49:53 44° 99° (E) 09:54:07 145.935
COMPASS 1 28 Sep 09:55:45 09:59:40 38° 288° (WNW) 10:03:34 437.405
UWE-3 28 Sep 09:59:25 10:03:44 73° 284° (WNW) 10:08:09 435.000/436.395/437.385
BEESAT 3 28 Sep 10:00:41 10:04:40 77° 57° (ENE) 10:08:38 437.485
JAS-2 28 Sep 10:04:51 10:07:26 12° 51° (NE) 10:10:05 435.910
Cosmos 2499 28 Sep 10:10:41 10:17:17 40° 285° (WNW) 10:23:51 435.465 / 435.565
UNISAT 6 28 Sep 10:16:49 10:21:04 72° 76° (ENE) 10:25:19 437.425
Oscar 11 28 Sep 10:25:16 10:29:35 63° 286° (WNW) 10:33:53 145.826/435.025
SEEDS 28 Sep 10:26:30 10:28:41 14° 295° (WNW) 10:30:50 437.485
CUTE 1.7 + AOD 2 28 Sep 10:27:38 10:27:50 10° 298° (WNW) 10:28:02 437.475
DELFI C3 28 Sep 10:27:39 10:31:36 53° 100° (E) 10:35:31 145.870
ZACube-1 28 Sep 10:27:58 10:32:13 56° 286° (WNW) 10:36:33 437.345
GONETS M04 28 Sep 10:40:26 10:47:45 28° 292° (WNW) 10:55:07
PHONESAT 2.4 28 Sep 10:43:37 10:46:13 29° 156° (SSE) 10:48:51 2401.200-2431.200
QB50P2 28 Sep 10:44:18 10:47:21 20° 67° (ENE) 10:50:23 145.880/145.840
HUMSAT D 28 Sep 10:44:46 10:48:49 41° 98° (E) 10:52:52 437.325/437.525
POLYITAN 1 28 Sep 10:46:31 10:49:33 20° 67° (ENE) 10:52:36 437.675
AAUSAT CUBESAT 2 28 Sep 10:47:47 10:50:03 14° 295° (WNW) 10:52:18 437.432
ANTELSAT 28 Sep 10:52:27 10:56:31 44° 261° (W) 11:00:36 437.575/2403.000
BEESAT 2 28 Sep 10:57:11 11:01:05 51° 242° (WSW) 11:04:58 435.950
TIGRISAT 28 Sep 11:13:23 11:17:02 27° 264° (W) 11:20:41 435.000
HO-68 28 Sep 11:17:23 11:20:25 13° 308° (NW) 11:23:26 435.675
DUCHIFAT 1 28 Sep 11:22:45 11:26:41 42° 72° (ENE) 11:30:38 145.980
FUNcube-1 28 Sep 11:23:04 11:25:47 17° 294° (WNW) 11:28:33 145.935
BUGSAT 1 28 Sep 11:24:30 11:27:17 18° 67° (ENE) 11:30:03 437.445
QB50P1 28 Sep 11:25:15 11:29:19 52° 74° (ENE) 11:33:25 145.935-145.965
ESTCUBE 1 28 Sep 11:32:44 11:36:13 21° 94° (E) 11:39:41 437.505/2401.250
CUBEBUG 1 28 Sep 11:34:10 11:36:11 13° 91° (E) 11:38:13 437.445
POPSAT HIP 1 28 Sep 11:38:42 11:42:53 75° 75° (ENE) 11:47:05 437.405
JAS-2 28 Sep 11:44:28 11:50:51 65° 71° (ENE) 11:58:05 435.910
AIST 2 28 Sep 11:46:11 11:49:23 21° 47° (NE) 11:52:34 435.215
50 SAT 28 Sep 11:50:18 11:51:50 12° 92° (E) 11:53:23 437.505
PCSat 28 Sep 11:51:36 11:52:47 11° 37° (NE) 11:53:59 145.827
NANOSAT C BR1 28 Sep 11:54:41 11:58:52 74° 258° (WSW) 12:03:04 145.865
Oscar 19 28 Sep 11:55:27 11:56:28 11° 58° (ENE) 11:57:29 437.125/150
DELFI C3 28 Sep 12:04:23 12:05:57 12° 296° (WNW) 12:07:31 145.870
SPROUT 28 Sep 12:12:20 12:14:41 14° 92° (E) 12:17:02 437.525
QB50P2 28 Sep 12:19:05 12:22:55 33° 263° (W) 12:26:45 145.880/145.840
PHONESAT 2.4 28 Sep 12:19:14 12:22:11 90° 26° (NNE) 12:25:08 2401.200-2431.200
POLYITAN 1 28 Sep 12:21:19 12:25:07 33° 262° (W) 12:28:56 437.675
HUMSAT D 28 Sep 12:21:20 12:24:06 17° 294° (WNW) 12:26:53 437.325/437.525
AISAT 28 Sep 12:22:16 12:26:20 36° 98° (E) 12:30:22 437.250
UKube-1 28 Sep 12:27:01 12:30:00 18° 94° (E) 12:32:58 .
YUBILEINY 28 Sep 12:35:54 12:40:59 16° 61° (ENE) 12:46:03 435.215
Gurwin Techsat 1B 28 Sep 12:54:31 12:58:10 19° 63° (ENE) 13:01:51 435.225
AUBIESAT-1 28 Sep 12:55:40 12:58:33 27° 103° (ESE) 13:01:28 437.475
DX 1 28 Sep 12:55:44 12:59:58 50° 100° (E) 13:04:10 434.975-435.025
BUGSAT 1 28 Sep 12:58:37 13:02:24 35° 262° (W) 13:06:09 437.445
DUCHIFAT 1 28 Sep 13:00:09 13:02:33 15° 268° (W) 13:05:00 145.980
QB50P1 28 Sep 13:03:41 13:05:24 12° 269° (W) 13:07:07 145.935-145.965
VELOX 1 28 Sep 13:05:37 13:10:01 77° 285° (WNW) 13:14:24 145.980
CUBEBUG 1 28 Sep 13:08:34 13:12:47 52° 287° (WNW) 13:16:58 437.445
ESTCUBE 1 28 Sep 13:08:58 13:13:05 35° 290° (WNW) 13:17:10 437.505/2401.250
50 SAT 28 Sep 13:22:04 13:25:31 39° 287° (WNW) 13:28:55 437.505
AIST 2 28 Sep 13:24:04 13:28:02 42° 244° (WSW) 13:31:59 435.215
Oscar 19 28 Sep 13:29:43 13:34:55 82° 75° (ENE) 13:40:09 437.125/150
TISAT 1 28 Sep 13:30:01 13:33:08 20° 94° (E) 13:36:14 437.305
JAS-2 28 Sep 13:31:43 13:36:32 22° 272° (W) 13:41:48 435.910
PCSat 28 Sep 13:32:03 13:37:24 56° 58° (ENE) 13:42:43 145.827
M-CUBED/EXP-1 PRIME 28 Sep 13:33:19 13:36:33 61° 290° (WNW) 13:39:47 437.505
SPROUT 28 Sep 13:46:47 13:50:51 45° 288° (WNW) 13:54:54 437.525
PHONESAT 2.4 28 Sep 13:55:23 13:58:20 88° 168° (SSE) 14:01:17 2401.200-2431.200
AISAT 28 Sep 13:59:22 14:02:33 20° 294° (WNW) 14:05:43 437.250
UKube-1 28 Sep 14:02:11 14:06:09 37° 289° (WNW) 14:10:07 .
AO-7 28 Sep 14:05:26 14:11:53 26° 55° (NE) 14:18:20 29.400- 29.500
SWISSCUBE 28 Sep 14:18:12 14:21:03 16° 92° (E) 14:23:55 437.505
ITAMSAT 1 28 Sep 14:24:46 14:29:26 36° 68° (ENE) 14:34:08 435.822/435.867
Cosmos 2491 28 Sep 14:25:29 14:33:32 43° 87° (E) 14:41:39 435.465 / 435.565
YUBILEINY 28 Sep 14:30:28 14:39:14 83° 83° (E) 14:47:56 435.215
BEESAT 28 Sep 14:30:40 14:34:03 19° 93° (E) 14:37:26 436.000
AUBIESAT-1 28 Sep 14:30:55 14:32:50 15° 298° (WNW) 14:34:45 437.475
Gurwin Techsat 1B 28 Sep 14:32:28 14:37:39 55° 259° (W) 14:42:54 435.225
DX 1 28 Sep 14:33:16 14:35:43 15° 296° (WNW) 14:38:09 434.975-435.025
SO-50 28 Sep 14:45:26 14:49:49 35° 115° (ESE) 14:54:11 436.795
Cosmos 2504 28 Sep 14:59:27 15:06:41 51° 78° (ENE) 15:14:22 435.465 / 435.565
TISAT 1 28 Sep 15:05:07 15:08:48 31° 290° (WNW) 15:12:29 437.305
Oscar 19 28 Sep 15:13:23 15:14:50 11° 271° (W) 15:16:17 437.125/150
PCSat 28 Sep 15:16:33 15:20:19 19° 255° (WSW) 15:24:03 145.827
PHONESAT 2.4 28 Sep 15:31:39 15:34:16 28° 204° (SSW) 15:36:52 2401.200-2431.200
ITUPSAT 1 28 Sep 15:41:37 15:46:27 82° 286° (WNW) 15:51:16 437.325
MOZHAYETS 4 28 Sep 15:50:55 15:54:34 23° 94° (E) 15:58:13
SWISSCUBE 28 Sep 15:54:28 15:59:09 53° 288° (WNW) 16:03:48 437.505
AO-7 28 Sep 15:55:34 16:03:53 74° 254° (WSW) 16:12:13 29.400- 29.500
ITAMSAT 1 28 Sep 16:04:36 16:08:56 27° 264° (W) 16:13:17 435.822/435.867
AIST 1 28 Sep 16:05:16 16:09:11 34° 77° (ENE) 16:13:04
BEESAT 28 Sep 16:07:29 16:12:01 44° 289° (WNW) 16:16:33 436.000
KKS-1 28 Sep 16:11:27 16:14:53 22° 95° (E) 16:18:17 437.445
Cosmos 2491 28 Sep 16:22:10 16:30:19 41° 287° (WNW) 16:38:35 435.465 / 435.565
O/OREOS (USA 219) 28 Sep 16:25:55 16:29:45 25° 59° (ENE) 16:33:32 437.305
SO-50 28 Sep 16:26:05 16:30:19 30° 311° (NW) 16:34:32 436.795
HORYU 2 28 Sep 16:28:56 16:32:36 26° 68° (ENE) 16:36:17 437.375
YUBILEINY 28 Sep 16:29:18 16:34:52 19° 282° (WNW) 16:40:27 435.215
GOMX 1 28 Sep 16:40:59 16:41:32 10° 61° (ENE) 16:42:05 467.674
STARS 28 Sep 16:43:06 16:46:34 23° 95° (E) 16:50:01 437.465
BRITE-PL 28 Sep 16:50:23 16:55:17 31° 68° (ENE) 17:00:07 437.365/2234.400
Cosmos 2504 28 Sep 16:53:28 16:59:42 30° 274° (W) 17:06:16 435.465 / 435.565
CUBESAT XI-V 28 Sep 17:12:38 17:16:15 22° 94° (E) 17:19:49 437.345
NOAA 18 28 Sep 17:17:35 17:21:14 19° 62° (ENE) 17:24:55 137.9125
MOZHAYETS 4 28 Sep 17:27:34 17:31:47 35° 290° (WNW) 17:35:58
CUSAT 1 28 Sep 17:35:49 17:36:55 10° 74° (ENE) 17:38:02 437.405
AIST 1 28 Sep 17:43:36 17:46:29 18° 273° (W) 17:49:21
KKS-1 28 Sep 17:47:31 17:51:28 33° 290° (WNW) 17:55:25 437.445
NOAA 15 28 Sep 17:49:29 17:54:36 51° 71° (ENE) 17:59:45 137.62
AO-7 28 Sep 17:54:37 17:57:54 13° 272° (W) 18:01:13 29.400- 29.500
O/OREOS (USA 219) 28 Sep 18:05:04 18:09:10 32° 256° (WSW) 18:13:12 437.305
HORYU 2 28 Sep 18:05:19 18:09:04 27° 264° (W) 18:12:49 437.375
CUTE-I 28 Sep 18:08:15 18:13:27 61° 73° (ENE) 18:18:42 437.470
Cubesat XI-IV 28 Sep 18:08:21 18:13:33 61° 73° (ENE) 18:18:48 437.490
HO-68 28 Sep 18:10:22 18:14:30 17° 54° (NE) 18:18:38 435.675
Cosmos 2499 28 Sep 18:11:32 18:13:10 11° 60° (ENE) 18:14:49 435.465 / 435.565
GOMX 1 28 Sep 18:13:26 18:18:50 79° 76° (ENE) 18:24:00 467.674
STARS 28 Sep 18:19:05 18:22:55 31° 291° (WNW) 18:26:45 437.465
BRITE-PL 28 Sep 18:28:20 18:33:34 37° 264° (W) 18:38:46 437.365/2234.400
LilacSat-2 28 Sep 18:29:58 18:33:42 76° 257° (WSW) 18:37:30 437.200
DOVE 4 28 Sep 18:31:25 18:36:17 51° 74° (ENE) 18:40:53 437.250
RS-15 28 Sep 18:35:07 18:44:06 28° 101° (E) 18:53:23 29.354- 29.394
CUBESAT XI-V 28 Sep 18:49:24 18:53:42 36° 289° (WNW) 18:57:58 437.345
GONETS M04 28 Sep 18:53:20 19:00:51 30° 69° (ENE) 19:08:15
NOAA 18 28 Sep 18:56:00 19:01:24 61° 258° (WSW) 19:06:49 137.9125
DANDE 28 Sep 19:09:50 19:13:56 23° 82° (E) 19:18:55 436.750
CUSAT 1 28 Sep 19:10:57 19:17:06 69° 94° (E) 19:24:40 437.405
COMPASS 1 28 Sep 19:13:02 19:14:15 11° 63° (ENE) 19:15:29 437.405
NOAA 15 28 Sep 19:30:52 19:34:38 20° 267° (W) 19:38:26 137.62
CINEMA 3 28 Sep 19:37:43 19:42:10 65° 75° (ENE) 19:46:26 145.822/145.860
CUTE 1.7 + AOD 2 28 Sep 19:40:05 19:44:09 47° 73° (ENE) 19:48:15 437.475
ISS 28 Sep 19:40:07 19:43:01 30° 135° (SE) 19:45:55 145.825
SEEDS 28 Sep 19:40:17 19:44:03 32° 71° (ENE) 19:47:50 437.485
CANX-2 28 Sep 19:41:25 19:45:33 57° 75° (ENE) 19:49:45 2200.000
CUTE-I 28 Sep 19:50:43 19:53:54 16° 269° (W) 19:57:06 437.470
Cubesat XI-IV 28 Sep 19:50:49 19:54:02 16° 269° (W) 19:57:15 437.490
HO-68 28 Sep 19:54:00 20:01:10 84° 73° (ENE) 20:08:22 435.675
GOMX 1 28 Sep 19:55:09 19:57:20 12° 270° (W) 19:59:28 467.674
Cosmos 2499 28 Sep 20:00:09 20:07:42 65° 80° (E) 20:15:51 435.465 / 435.565
AAUSAT CUBESAT 2 28 Sep 20:00:32 20:04:07 29° 70° (ENE) 20:07:46 437.432
DOVE 4 28 Sep 20:10:58 20:14:09 17° 267° (W) 20:17:15 437.250
STRAND 1 28 Sep 20:11:50 20:16:59 69° 102° (ESE) 20:22:07 437.568
AO-85 28 Sep 20:26:00 20:30:42 34° 114° (ESE) 20:35:11 145.980
CUBEBUG 2 28 Sep 20:39:27 20:43:39 82° 75° (ENE) 20:47:49 437.445
FUNcube-1 28 Sep 20:40:55 20:44:32 30° 70° (ENE) 20:48:10 145.935
RS-15 28 Sep 20:43:31 20:55:09 81° 303° (WNW) 21:07:27 29.354- 29.394
COMPASS 1 28 Sep 20:45:06 20:49:14 64° 259° (W) 20:53:25 437.405
GONETS M04 28 Sep 20:49:33 20:58:08 59° 269° (W) 21:06:37
DANDE 28 Sep 20:51:00 20:56:02 48° 287° (WNW) 21:02:39 436.750
CUSAT 1 28 Sep 20:54:51 20:59:57 23° 297° (WNW) 21:05:45 437.405
UWE-3 28 Sep 20:55:39 20:59:48 81° 76° (ENE) 21:03:57 435.000/436.395/437.385
DELFI C3 28 Sep 21:12:53 21:16:19 28° 70° (ENE) 21:19:45 145.870
ISS 28 Sep 21:16:31 21:19:28 31° 332° (NNW) 21:22:26 145.825
SEEDS 28 Sep 21:16:43 21:19:48 20° 267° (W) 21:22:55 437.485
CUTE 1.7 + AOD 2 28 Sep 21:18:02 21:20:14 14° 269° (W) 21:22:27 437.475
CINEMA 3 28 Sep 21:18:44 21:19:38 11° 269° (W) 21:20:33 145.822/145.860
Oscar 11 28 Sep 21:18:53 21:23:11 90° 74° (ENE) 21:27:32 145.826/435.025
CANX-2 28 Sep 21:20:23 21:21:46 11° 270° (W) 21:23:10 2200.000
ZACube-1 28 Sep 21:22:54 21:27:02 79° 258° (WSW) 21:31:12 437.345
PRISM 28 Sep 21:25:36 21:29:26 36° 98° (E) 21:33:14 437.425
HUMSAT D 28 Sep 21:35:43 21:39:05 25° 69° (ENE) 21:42:29 437.325/437.525
AAUSAT CUBESAT 2 28 Sep 21:36:22 21:39:35 22° 266° (W) 21:42:51 437.432
HO-68 28 Sep 21:45:21 21:49:39 17° 270° (W) 21:53:57 435.675
STRAND 1 28 Sep 21:52:41 21:55:33 15° 299° (WNW) 21:58:25 437.568
Cosmos 2499 28 Sep 21:54:30 22:00:13 23° 277° (W) 22:06:14 435.465 / 435.565
AO-85 28 Sep 22:06:31 22:11:10 33° 310° (NW) 22:15:33 145.980
UNISAT 6 28 Sep 22:09:59 22:12:43 16° 93° (E) 22:15:29 437.425
FUNcube-1 28 Sep 22:17:45 22:20:49 20° 266° (W) 22:23:54 145.935
CUBEBUG 1 28 Sep 22:30:33 22:31:59 11° 62° (ENE) 22:33:24 437.445
ESTCUBE 1 28 Sep 22:31:58 22:35:11 19° 66° (ENE) 22:38:24 437.505/2401.250
ANTELSAT 28 Sep 22:44:13 22:48:20 37° 98° (E) 22:52:32 437.575/2403.000
M-CUBED/EXP-1 PRIME 28 Sep 22:46:53 22:48:24 12° 61° (ENE) 22:49:53 437.505
DELFI C3 28 Sep 22:48:05 22:51:07 21° 266° (W) 22:54:11 145.870
ISS 28 Sep 22:55:22 22:56:46 12° 351° (N) 22:58:09 145.825
JAS-2 28 Sep 22:59:09 23:00:43 11° 82° (E) 23:02:16 435.910
RS-15 28 Sep 22:59:49 23:09:53 30° 331° (NNW) 23:20:19 29.354- 29.394
PRISM 28 Sep 23:01:40 23:04:27 18° 294° (WNW) 23:07:13 437.425
TIGRISAT 28 Sep 23:04:17 23:08:39 59° 101° (E) 23:13:06 435.000
SPROUT 28 Sep 23:06:43 23:07:56 11° 63° (ENE) 23:09:10 437.525
HUMSAT D 28 Sep 23:11:20 23:14:38 24° 265° (W) 23:17:59 437.325/437.525
SO-50 28 Sep 23:17:30 23:21:27 27° 48° (NE) 23:25:17 436.795
AISAT 28 Sep 23:18:56 23:22:50 31° 69° (ENE) 23:26:44 437.250
UKube-1 28 Sep 23:21:32 23:24:04 15° 64° (ENE) 23:26:36 .
POPSAT HIP 1 28 Sep 23:25:56 23:27:43 12° 91° (E) 23:29:31 437.405
AUBIESAT-1 28 Sep 23:40:30 23:44:13 37° 68° (ENE) 23:47:44 437.475
NANOSAT C BR1 28 Sep 23:40:34 23:43:28 18° 94° (E) 23:46:20 145.865
UNISAT 6 28 Sep 23:45:24 23:49:38 45° 287° (WNW) 23:53:56 437.425
DX 1 28 Sep 23:50:25 23:54:30 40° 71° (ENE) 23:58:36 434.975-435.025
BEESAT 3 28 Sep 23:52:07 23:54:13 14° 110° (ESE) 23:56:21 437.485
50 SAT 28 Sep 23:57:24 00:01:00 74° 74° (ENE) 00:04:39 437.505
VELOX 1 29 Sep 00:01:46 00:06:14 86° 76° (ENE) 00:10:42 145.980
CUBEBUG 1 29 Sep 00:03:15 00:07:39 70° 258° (WSW) 00:12:04 437.445
QB50P2 29 Sep 00:04:12 00:08:09 38° 98° (E) 00:12:05 145.880/145.840
POLYITAN 1 29 Sep 00:06:23 00:10:21 38° 98° (E) 00:14:17 437.675
ESTCUBE 1 29 Sep 00:07:24 00:11:40 40° 262° (W) 00:15:58 437.505/2401.250
M-CUBED/EXP-1 PRIME 29 Sep 00:18:28 00:22:34 58° 253° (WSW) 00:26:23 437.505
ANTELSAT 29 Sep 00:21:34 00:24:48 20° 293° (WNW) 00:28:05 437.575/2403.000
TISAT 1 29 Sep 00:21:51 00:24:14 15° 65° (ENE) 00:26:37 437.305
ISS 29 Sep 00:32:44 00:34:22 13° 12° (NNE) 00:36:02 145.825
Cosmos 2491 29 Sep 00:37:11 00:43:21 20° 64° (ENE) 00:49:28 435.465 / 435.565
SPROUT 29 Sep 00:39:04 00:43:18 67° 259° (W) 00:47:34 437.525
JAS-2 29 Sep 00:39:16 00:47:07 66° 100° (E) 00:54:29 435.910
BUGSAT 1 29 Sep 00:40:48 00:44:23 30° 97° (E) 00:47:58 437.445
DUCHIFAT 1 29 Sep 00:42:36 00:46:48 87° 98° (E) 00:51:00 145.980
TIGRISAT 29 Sep 00:42:43 00:44:52 13° 296° (WNW) 00:47:01 435.000
QB50P1 29 Sep 00:45:59 00:50:11 74° 284° (WNW) 00:54:23 145.935-145.965
BEESAT 2 29 Sep 00:48:24 00:51:50 29° 114° (ESE) 00:55:18 435.950
UKube-1 29 Sep 00:55:31 00:59:42 48° 260° (W) 01:03:54 .
AISAT 29 Sep 00:55:42 00:59:17 24° 265° (W) 01:02:52 437.250
SO-50 29 Sep 00:57:50 01:01:56 34° 246° (WSW) 01:05:56 436.795
POPSAT HIP 1 29 Sep 00:59:42 01:03:48 52° 286° (WNW) 01:07:53 437.405
ITUPSAT 1 29 Sep 01:13:16 01:15:05 12° 61° (ENE) 01:16:55 437.325
AUBIESAT-1 29 Sep 01:16:15 01:18:44 16° 260° (W) 01:21:08 437.475
